Location: Biltmore Gardens
(41.6070°N, 83.4666°W)
Time: 15:07:58
(UTC+00:00)

NPP - Pass Details

Date: 14 July 2020
Orbit: 826 x 828 km, 98.7° (Epoch: 13 August)

Event Time Altitude Azimuth Distance (km) Brightness Sun altitude
Rises 08:05:01 0° 5° (N) 3,375 7.9 -18.4°
Reaches altitude 10° 08:07:31 10° 358° (N) 2,437 6.8 -18.2°
Maximum altitude 08:12:28 39° 292° (WNW) 1,230 4.4 -17.6°
Enters shadow 08:14:50 26° 244° (WSW) 1,587 4.6 -17.3°
